Location: Bratsk-Energetik
(56.3300°N, 101.7600°E)
Time: 22:11:43
(UTC+08:00)

ISS - Pass Details

Date: 25 May 2017
Orbit: 402 x 409 km, 51.6° (Epoch: 25 May)

Event Time Altitude Azimuth Distance (km) Brightness Sun altitude
Rises 22:26:13 0° 210° (SSW) 2,325 -0.2 -5.3°
Reaches altitude 10° 22:28:56 10° 186° (S) 1,467 -1.4 -5.5°
Maximum altitude 22:30:53 15° 149° (SSE) 1,206 -2.1 -5.7°
Drops below altitude 10° 22:32:50 10° 113° (ESE) 1,469 -1.5 -5.8°
Sets 22:35:33 0° 89° (E) 2,331 -0.3 -6.0°
